Location: Unspecified
(58.7730°N, 5.8460°E)
Time: 09:19:00
(UTC+01:00)

CZ-3 Stage 3 - Visible Passes

Search period start: 01 November 2014 00:00
Search period end: 11 November 2014 00:00
Orbit: 418 x 34819 km, 30.9° (Epoch: 31 October)

Date Brightness Start Highest point End Pass type
(mag) Time Alt. Az. Time Alt. Az. Time Alt. Az.
01 Nov 7.1 01:52:32 10° SW 06:37:32 31° SSW 06:50:31 10° SSE visible
01 Nov 7.7 21:48:37 10° SSE 02:44:30 36° SSE 03:16:19 10° ESE visible
02 Nov 8.3 21:03:45 10° ESE 22:45:02 18° ESE 23:27:16 10° E visible
04 Nov 7.0 01:37:22 10° SW 06:33:30 31° SSW 06:46:29 10° SSE visible
04 Nov 7.6 21:33:32 10° SSE 02:40:48 37° SSE 03:12:29 10° ESE visible
05 Nov 8.3 20:45:50 10° ESE 22:40:29 19° ESE 23:25:02 10° E visible
07 Nov 7.0 01:22:29 10° SW 06:29:18 30° SSW 06:42:19 10° SSE visible
07 Nov 7.6 21:18:39 10° SSE 02:36:57 38° S 03:08:31 10° ESE visible
08 Nov 8.2 20:28:16 10° ESE 22:35:47 21° ESE 23:22:22 10° E visible
10 Nov 6.9 01:07:57 10° SW 06:24:57 30° SW 06:38:01 10° SSE visible
10 Nov 10.3 21:03:58 10° SSE 00:00:00 26° S 00:00:00 26° S visible
